Time,TemperatureF,DewpointF,PressureIn,WindDirection,WindDirectionDegrees,WindSpeedMPH,WindSpeedGustMPH,Humidity,HourlyPrecipIn,Conditions,Clouds,dailyrainin,SoftwareType,DateUTC
2013-02-17 00:12:00,25.9,25.0,29.67,West,277,1.0,21.0,95,0.00,,,0.00,weatherlink.com 1.10,2013-02-17 05:12:00,
2013-02-17 00:27:00,26.0,25.0,29.65,SSW,198,8.0,24.0,96,0.00,,,0.00,weatherlink.com 1.10,2013-02-17 05:27:00,
2013-02-17 00:42:00,25.9,25.0,29.64,SSE,154,0.0,22.0,95,0.00,,,0.00,weatherlink.com 1.10,2013-02-17 05:42:00,
2013-02-17 00:57:00,25.8,25.0,29.62,WSW,240,9.0,24.0,95,0.00,,,0.00,weatherlink.com 1.10,2013-02-17 05:57:00,
2013-02-17 01:12:00,25.7,24.0,29.61,West,265,10.0,26.0,94,0.00,,,0.00,weatherlink.com 1.10,2013-02-17 06:12:00,
2013-02-17 01:27:00,25.9,24.0,29.60,West,270,21.0,25.0,93,0.00,,,0.00,weatherlink.com 1.10,2013-02-17 06:27:00,
2013-02-17 01:42:00,25.4,23.0,29.59,West,269,13.0,22.0,92,0.00,,,0.00,weatherlink.com 1.10,2013-02-17 06:42:00,
2013-02-17 01:57:00,25.3,23.0,29.57,West,262,8.0,28.0,92,0.00,,,0.00,weatherlink.com 1.10,2013-02-17 06:57:00,
2013-02-17 02:12:00,25.4,23.0,29.57,West,269,20.0,24.0,92,0.00,,,0.00,weatherlink.com 1.10,2013-02-17 07:12:00,
2013-02-17 02:27:00,25.0,23.0,29.57,West,277,19.0,26.0,92,0.00,,,0.00,weatherlink.com 1.10,2013-02-17 07:27:00,
2013-02-17 02:42:00,24.5,23.0,29.56,South,191,0.0,23.0,92,0.00,,,0.00,weatherlink.com 1.10,2013-02-17 07:42:00,
2013-02-17 02:57:00,24.1,22.0,29.54,WSW,254,16.0,21.0,93,0.00,,,0.00,weatherlink.com 1.10,2013-02-17 07:57:00,
2013-02-17 03:12:00,23.8,22.0,29.53,WNW,287,5.0,22.0,93,0.00,,,0.00,weatherlink.com 1.10,2013-02-17 08:12:00,
2013-02-17 03:27:00,23.4,22.0,29.53,WSW,244,9.0,22.0,94,0.00,,,0.00,weatherlink.com 1.10,2013-02-17 08:27:00,
2013-02-17 03:42:00,23.4,22.0,29.52,WSW,254,9.0,21.0,94,0.00,,,0.00,weatherlink.com 1.10,2013-02-17 08:42:00,
2013-02-17 03:57:00,23.5,22.0,29.49,West,275,18.0,26.0,94,0.00,,,0.00,weatherlink.com 1.10,2013-02-17 08:57:00,
2013-02-17 04:13:00,23.2,22.0,29.48,West,263,16.0,27.0,94,0.00,,,0.00,weatherlink.com 1.10,2013-02-17 09:13:00,
2013-02-17 04:27:00,23.1,22.0,29.48,WNW,290,18.0,26.0,94,0.00,,,0.00,weatherlink.com 1.10,2013-02-17 09:27:00,
2013-02-17 04:42:00,22.8,21.0,29.48,West,273,11.0,23.0,93,0.00,,,0.00,weatherlink.com 1.10,2013-02-17 09:42:00,
2013-02-17 04:57:00,22.6,21.0,29.48,SSE,165,0.0,18.0,93,0.00,,,0.00,weatherlink.com 1.10,2013-02-17 09:57:00,
2013-02-17 05:13:00,22.5,21.0,29.45,West,273,17.0,23.0,93,0.00,,,0.00,weatherlink.com 1.10,2013-02-17 10:13:00,
2013-02-17 05:28:00,22.6,21.0,29.42,WSW,253,15.0,32.0,93,0.00,,,0.00,weatherlink.com 1.10,2013-02-17 10:28:00,
2013-02-17 05:43:00,22.8,21.0,29.41,West,271,16.0,30.0,92,0.00,,,0.00,weatherlink.com 1.10,2013-02-17 10:43:00,
2013-02-17 05:58:00,22.5,21.0,29.41,West,262,18.0,30.0,92,0.00,,,0.00,weatherlink.com 1.10,2013-02-17 10:58:00,
2013-02-17 06:13:00,22.4,21.0,29.39,WSW,248,6.0,23.0,92,0.00,,,0.00,weatherlink.com 1.10,2013-02-17 11:13:00,
2013-02-17 06:28:00,22.2,20.0,29.38,SW,215,6.0,24.0,91,0.00,,,0.00,weatherlink.com 1.10,2013-02-17 11:28:00,
2013-02-17 06:43:00,22.0,20.0,29.37,SSW,209,4.0,30.0,91,0.00,,,0.00,weatherlink.com 1.10,2013-02-17 11:43:00,
2013-02-17 06:58:00,22.3,20.0,29.35,West,268,12.0,30.0,91,0.00,,,0.00,weatherlink.com 1.10,2013-02-17 11:58:00,
2013-02-17 07:13:00,22.4,20.0,29.33,West,268,18.0,30.0,90,0.00,,,0.00,weatherlink.com 1.10,2013-02-17 12:13:00,
2013-02-17 07:28:00,22.3,20.0,29.31,West,262,18.0,35.0,89,0.00,,,0.00,weatherlink.com 1.10,2013-02-17 12:28:00,
2013-02-17 07:43:00,22.4,20.0,29.31,WNW,283,19.0,34.0,89,0.00,,,0.00,weatherlink.com 1.10,2013-02-17 12:43:00,
2013-02-17 07:58:00,22.4,20.0,29.30,West,261,14.0,30.0,89,0.00,,,0.00,weatherlink.com 1.10,2013-02-17 12:58:00,
2013-02-17 08:13:00,22.4,20.0,29.28,West,261,13.0,25.0,89,0.00,,,0.00,weatherlink.com 1.10,2013-02-17 13:13:00,
2013-02-17 08:29:00,22.3,20.0,29.25,West,261,9.0,26.0,90,0.00,,,0.00,weatherlink.com 1.10,2013-02-17 13:29:00,
2013-02-17 08:43:00,22.4,20.0,29.23,West,280,19.0,28.0,91,0.00,,,0.00,weatherlink.com 1.10,2013-02-17 13:43:00,
2013-02-17 08:59:00,22.5,21.0,29.21,WSW,255,15.0,31.0,92,0.00,,,0.00,weatherlink.com 1.10,2013-02-17 13:59:00,
2013-02-17 09:14:00,22.6,20.0,29.20,West,274,20.0,30.0,91,0.00,,,0.00,weatherlink.com 1.10,2013-02-17 14:14:00,
2013-02-17 09:29:00,22.8,21.0,29.18,WSW,249,9.0,30.0,91,0.00,,,0.00,weatherlink.com 1.10,2013-02-17 14:29:00,
2013-02-17 09:44:00,22.9,21.0,29.17,WNW,300,13.0,31.0,91,0.00,,,0.00,weatherlink.com 1.10,2013-02-17 14:44:00,
2013-02-17 09:59:00,23.0,21.0,29.15,West,273,8.0,27.0,90,0.00,,,0.00,weatherlink.com 1.10,2013-02-17 14:59:00,
2013-02-17 10:14:00,23.0,21.0,29.13,SSE,159,9.0,33.0,90,0.00,,,0.00,weatherlink.com 1.10,2013-02-17 15:14:00,
2013-02-17 10:29:00,23.1,21.0,29.11,ESE,111,13.0,33.0,91,0.00,,,0.00,weatherlink.com 1.10,2013-02-17 15:29:00,
2013-02-17 10:44:00,23.2,21.0,29.11,WSW,255,11.0,32.0,90,0.00,,,0.00,weatherlink.com 1.10,2013-02-17 15:44:00,
2013-02-17 10:59:00,23.8,21.0,29.08,WNW,283,13.0,31.0,89,0.00,,,0.00,weatherlink.com 1.10,2013-02-17 15:59:00,
2013-02-17 11:14:00,24.0,21.0,29.06,West,275,22.0,40.0,88,0.00,,,0.00,weatherlink.com 1.10,2013-02-17 16:14:00,
2013-02-17 11:29:00,24.1,21.0,29.03,WNW,282,10.0,39.0,89,0.00,,,0.00,weatherlink.com 1.10,2013-02-17 16:29:00,
2013-02-17 11:44:00,23.6,21.0,29.00,WNW,293,5.0,32.0,90,0.00,,,0.00,weatherlink.com 1.10,2013-02-17 16:44:00,
2013-02-17 11:59:00,23.3,21.0,28.99,SSE,151,3.0,26.0,90,0.00,,,0.00,weatherlink.com 1.10,2013-02-17 16:59:00,
2013-02-17 12:14:00,23.0,21.0,28.97,West,269,15.0,31.0,90,0.00,,,0.00,weatherlink.com 1.10,2013-02-17 17:14:00,
2013-02-17 12:29:00,22.9,21.0,28.95,NW,312,3.0,33.0,91,0.00,,,0.00,weatherlink.com 1.10,2013-02-17 17:29:00,
2013-02-17 12:44:00,22.9,21.0,28.95,ESE,123,13.0,31.0,91,0.00,,,0.00,weatherlink.com 1.10,2013-02-17 17:44:00,
2013-02-17 12:59:00,22.7,21.0,28.94,WNW,285,11.0,28.0,92,0.00,,,0.00,weatherlink.com 1.10,2013-02-17 17:59:00,
2013-02-17 13:14:00,23.0,21.0,28.93,West,277,5.0,22.0,92,0.00,,,0.00,weatherlink.com 1.10,2013-02-17 18:14:00,
2013-02-17 13:29:00,23.3,21.0,28.93,West,271,5.0,28.0,92,0.00,,,0.00,weatherlink.com 1.10,2013-02-17 18:29:00,
2013-02-17 13:44:00,23.4,22.0,28.92,SW,236,5.0,28.0,93,0.00,,,0.00,weatherlink.com 1.10,2013-02-17 18:44:00,
2013-02-17 13:59:00,23.4,22.0,28.91,WSW,245,0.0,22.0,92,0.00,,,0.00,weatherlink.com 1.10,2013-02-17 18:59:00,
2013-02-17 14:15:00,23.0,21.0,28.91,WSW,240,0.0,22.0,93,0.00,,,0.00,weatherlink.com 1.10,2013-02-17 19:15:00,
2013-02-17 14:30:00,22.4,21.0,28.91,WNW,294,1.0,14.0,92,0.00,,,0.00,weatherlink.com 1.10,2013-02-17 19:30:00,
2013-02-17 14:44:00,22.1,20.0,28.92,WNW,301,2.0,18.0,93,0.00,,,0.00,weatherlink.com 1.10,2013-02-17 19:44:00,
2013-02-17 14:59:00,21.8,20.0,28.92,ESE,115,16.0,22.0,93,0.00,,,0.00,weatherlink.com 1.10,2013-02-17 19:59:00,
2013-02-17 15:14:00,21.4,20.0,28.93,SE,144,3.0,14.0,93,0.00,,,0.00,weatherlink.com 1.10,2013-02-17 20:14:00,
2013-02-17 15:29:00,21.3,20.0,28.93,WSW,252,4.0,25.0,93,0.00,,,0.00,weatherlink.com 1.10,2013-02-17 20:29:00,
2013-02-17 15:45:00,21.4,20.0,28.93,ENE,72,5.0,25.0,94,0.00,,,0.00,weatherlink.com 1.10,2013-02-17 20:45:00,
2013-02-17 16:00:00,21.2,20.0,28.92,SSW,196,2.0,21.0,94,0.00,,,0.00,weatherlink.com 1.10,2013-02-17 21:00:00,
2013-02-17 16:14:00,20.7,19.0,28.93,SW,215,8.0,16.0,93,0.00,,,0.00,weatherlink.com 1.10,2013-02-17 21:14:00,
2013-02-17 16:29:00,20.2,19.0,28.93,SW,234,1.0,21.0,93,0.00,,,0.00,weatherlink.com 1.10,2013-02-17 21:29:00,
2013-02-17 16:44:00,20.0,18.0,28.93,WNW,300,3.0,25.0,92,0.00,,,0.00,weatherlink.com 1.10,2013-02-17 21:44:00,
2013-02-17 17:00:00,20.0,18.0,28.94,SSE,151,12.0,21.0,92,0.00,,,0.00,weatherlink.com 1.10,2013-02-17 22:00:00,
2013-02-17 17:14:00,20.2,18.0,28.95,SSW,200,4.0,26.0,92,0.01,,,0.01,weatherlink.com 1.10,2013-02-17 22:14:00,
2013-02-17 17:29:00,20.5,19.0,28.95,WSW,242,2.0,22.0,92,0.01,,,0.01,weatherlink.com 1.10,2013-02-17 22:29:00,
2013-02-17 17:44:00,20.9,19.0,28.96,WSW,241,8.0,24.0,91,0.01,,,0.01,weatherlink.com 1.10,2013-02-17 22:44:00,
2013-02-17 17:59:00,21.2,19.0,28.98,SE,134,0.0,20.0,91,0.01,,,0.01,weatherlink.com 1.10,2013-02-17 22:59:00,
2013-02-17 18:14:00,21.0,19.0,28.98,South,184,2.0,24.0,91,0.00,,,0.01,weatherlink.com 1.10,2013-02-17 23:14:00,
2013-02-17 18:29:00,20.3,18.0,28.99,SSE,166,3.0,19.0,92,0.00,,,0.01,weatherlink.com 1.10,2013-02-17 23:29:00,
2013-02-17 18:45:00,19.8,18.0,29.00,South,180,0.0,19.0,92,0.00,,,0.01,weatherlink.com 1.10,2013-02-17 23:45:00,
2013-02-17 19:00:00,19.4,18.0,29.00,ESE,115,0.0,21.0,93,0.00,,,0.01,weatherlink.com 1.10,2013-02-18 00:00:00,
2013-02-17 19:15:00,19.3,18.0,29.00,ESE,113,7.0,22.0,93,0.00,,,0.01,weatherlink.com 1.10,2013-02-18 00:15:00,
2013-02-17 19:30:00,19.4,18.0,29.02,WSW,252,3.0,23.0,92,0.00,,,0.01,weatherlink.com 1.10,2013-02-18 00:30:00,
2013-02-17 19:45:00,19.2,17.0,29.02,SSE,156,2.0,21.0,90,0.00,,,0.01,weatherlink.com 1.10,2013-02-18 00:45:00,
2013-02-17 20:00:00,19.1,16.0,29.03,SE,136,7.0,16.0,88,0.00,,,0.01,weatherlink.com 1.10,2013-02-18 01:00:00,
2013-02-17 20:15:00,19.3,16.0,29.05,SSE,148,3.0,19.0,86,0.00,,,0.01,weatherlink.com 1.10,2013-02-18 01:15:00,
2013-02-17 20:30:00,19.4,15.0,29.06,South,175,3.0,24.0,83,0.00,,,0.01,weatherlink.com 1.10,2013-02-18 01:30:00,
2013-02-17 20:45:00,19.6,14.0,29.06,SW,227,11.0,18.0,80,0.00,,,0.01,weatherlink.com 1.10,2013-02-18 01:45:00,
2013-02-17 21:00:00,19.8,14.0,29.07,SW,214,11.0,23.0,79,0.00,,,0.01,weatherlink.com 1.10,2013-02-18 02:00:00,
2013-02-17 21:15:00,19.9,14.0,29.08,SE,146,1.0,21.0,77,0.00,,,0.01,weatherlink.com 1.10,2013-02-18 02:15:00,
2013-02-17 21:30:00,19.9,13.0,29.09,South,175,10.0,27.0,75,0.00,,,0.01,weatherlink.com 1.10,2013-02-18 02:30:00,
2013-02-17 21:45:00,19.9,13.0,29.10,SSE,159,3.0,25.0,75,0.00,,,0.01,weatherlink.com 1.10,2013-02-18 02:45:00,
2013-02-17 22:00:00,19.7,13.0,29.11,SSE,168,9.0,18.0,75,0.00,,,0.01,weatherlink.com 1.10,2013-02-18 03:00:00,
2013-02-17 22:15:00,19.4,13.0,29.11,SE,146,5.0,17.0,76,0.00,,,0.01,weatherlink.com 1.10,2013-02-18 03:15:00,
2013-02-17 22:30:00,19.3,13.0,29.12,SSW,195,11.0,18.0,75,0.00,,,0.01,weatherlink.com 1.10,2013-02-18 03:30:00,
2013-02-17 22:45:00,19.3,13.0,29.14,SSE,165,8.0,22.0,75,0.00,,,0.01,weatherlink.com 1.10,2013-02-18 03:45:00,
2013-02-17 23:00:00,19.2,13.0,29.14,East,84,2.0,15.0,76,0.00,,,0.01,weatherlink.com 1.10,2013-02-18 04:00:00,
2013-02-17 23:15:00,18.8,13.0,29.16,SSE,150,10.0,19.0,77,0.00,,,0.01,weatherlink.com 1.10,2013-02-18 04:15:00,
2013-02-17 23:30:00,18.7,13.0,29.17,SSE,165,7.0,16.0,77,0.00,,,0.01,weatherlink.com 1.10,2013-02-18 04:30:00,
2013-02-17 23:45:00,18.4,13.0,29.18,SSE,151,4.0,15.0,78,0.00,,,0.01,weatherlink.com 1.10,2013-02-18 04:45:00,